Temperature
22 19 19 19 20 20 20 20 20 20 21 21 20 19 19 20 20 19 19 19 19 20 20 20 20 20 19 19 19 19 19 18 18 18 18 18 17 17 17 17 17 16 16 16
19 19 20 21 21 21 21 20 20 20 21 21 19 19 19 19 19 20 19 19 19 19 20 19 19 19 19 19 19 19 19 18 18 18 18 18 17 17 17 17 16 16 16 16
19 20 21 22 21 21 20 20 20 20 21 20 20 18 18 19 19 19 19 19 19 19 19 19 19 19 19 19 19 19 18 18 18 18 18 17 17 17 17 16 16 16 16 16
20 21 21 21 21 21 20 21 21 21 19 18 19 17 17 18 18 18 18 19 19 19 19 19 19 19 19 19 19 19 18 18 18 18 18 17 17 17 16 16 16 16 16 16
19 21 21 21 21 21 20 21 21 21 19 18 18 17 16 17 17 17 17 18 19 19 19 19 19 19 19 19 18 18 18 18 18 18 17 17 17 17 16 16 16 16 16 15
20 21 21 21 21 21 21 20 19 17 17 17 18 17 16 16 17 17 17 18 18 18 18 18 18 18 18 18 18 18 18 18 18 17 17 17 17 17 16 16 16 16 15 15
19 20 21 21 20 20 20 17 16 16 15 16 17 17 16 17 18 18 17 18 18 18 18 18 18 18 18 18 18 17 17 17 17 17 17 17 17 16 16 16 16 16 15 15
18 18 20 20 20 19 19 17 16 16 16 16 17 16 17 18 18 19 18 18 17 17 17 17 18 18 18 18 17 17 17 17 17 17 17 16 16 16 16 16 16 15 15 15
17 17 20 20 20 20 19 17 17 16 16 15 15 16 17 18 17 17 17 17 17 17 17 17 17 17 17 17 17 17 17 17 17 16 16 16 16 16 16 16 15 15 15 15
17 17 19 20 20 20 19 17 15 15 15 15 16 16 16 17 16 16 16 16 17 16 16 17 17 17 17 17 17 17 17 16 16 16 16 16 16 15 15 15 15 15 15 15
17 16 17 18 18 18 18 17 16 14 14 15 15 15 17 16 16 16 16 16 16 16 16 16 16 16 16 16 16 16 16 16 16 16 16 15 15 15 15 15 15 15 15 15
16 14 15 16 18 18 18 17 15 15 15 14 14 15 17 16 16 16 16 16 16 16 16 16 16 16 16 16 16 16 16 16 16 15 15 15 15 15 15 15 14 14 14 14
16 14 14 15 16 17 17 17 16 14 13 13 14 15 16 15 16 16 16 16 16 16 16 16 16 15 15 15 15 15 15 15 15 15 15 15 15 15 14 14 14 14 14 14
15 13 14 15 15 16 16 17 16 14 13 13 14 14 15 15 15 15 15 16 16 16 15 15 15 15 15 15 15 15 15 15 15 14 14 14 14 14 14 14 14 14 14 13
14 13 14 15 16 16 16 16 16 15 14 14 14 14 14 14 14 15 15 15 15 15 15 15 15 15 14 14 14 14 14 14 14 14 14 14 14 14 14 13 13 13 13 13
13 13 14 14 15 15 15 15 15 15 15 14 14 14 14 14 14 14 14 15 14 15 15 15 14 14 14 14 14 14 14 14 14 14 14 13 13 13 13 13 13 13 13 13
12 12 13 13 14 14 13 14 14 14 14 14 13 13 13 13 13 13 14 14 14 14 14 14 14 14 14 14 14 14 14 14 13 13 13 13 13 13 13 13 12 12 12 12
12 11 11 11 13 13 13 14 14 14 13 13 13 12 13 13 13 13 13 13 13 13 14 14 14 14 14 14 13 13 13 13 13 13 13 13 13 12 12 12 12 12 12 12
11 11 10 10 11 12 13 13 14 13 12 12 12 12 12 12 12 12 13 13 13 13 13 13 14 14 13 13 13 13 13 13 13 12 12 12 12 12 12 12 12 11 11 11
11 10 10 10 11 11 12 13 14 13 11 12 12 11 11 11 10 10 11 12 12 12 13 13 13 13 13 13 12 12 12 12 12 12 12 12 12 12 11 11 11 11 11 11
11 10 10 10 10 10 11 12 13 12 11 12 12 12 11 11 10 11 11 11 11 11 12 12 12 12 12 12 12 12 12 11 11 11 11 11 11 11 11 11 11 11 10 10
10 9 9 9 10 10 11 12 11 10 11 11 11 11 11 11 11 10 10 10 10 11 11 11 11 11 11 11 11 11 11 11 11 11 11 11 11 11 10 10 10 10 10 10
9 9 9 9 9 10 11 11 12 12 11 11 11 11 11 10 10 10 10 10 10 10 10 10 10 10 10 10 10 10 10 10 10 10 10 10 10 10 10 10 10 9 9 9
9 9 9 8 9 10 11 11 11 11 11 11 11 11 10 10 9 9 9 9 9 9 9 9 9 9 9 9 9 9 9 9 9 9 9 9 9 9 9 9 9 9 9 8
8 8 8 8 8 9 10 10 10 10 11 10 10 10 10 9 9 9 8 8 8 8 8 8 8 8 8 8 8 8 8 8 8 9 8 8 9 8 8 8 8 8 8 8
7 8 7 8 9 8 9 10 10 10 10 10 9 9 9 9 8 8 8 8 7 7 7 7 7 7 7 7 7 7 7 7 8 8 8 8 8 8 8 8 8 7 7 7
Wind_Speed
0 3 3 6 6 5 4 3 4 5 4 4 5 6 8 6 6 7 7 7 7 8 6 5 5 6 5 6 7 7 7 6 6 4 4 4 3 2 2 2 4 6 7 7
3 4 8 6 4 2 2 2 3 4 3 3 4 6 6 6 8 9 9 8 8 6 4 4 4 5 5 5 6 6 7 7 6 5 4 4 4 3 2 2 3 5 6 6
6 6 4 3 2 2 3 4 5 5 3 1 1 4 5 4 2 3 5 6 7 9 8 7 5 5 5 5 6 7 6 6 6 6 5 4 4 3 2 1 1 2 5 5
3 4 2 2 3 4 4 5 5 3 0 3 1 3 6 4 2 3 4 5 7 7 7 7 7 6 5 5 5 6 6 6 5 6 7 7 5 4 2 2 2 1 3 4
3 2 2 3 5 4 5 5 4 3 3 2 2 3 6 2 2 5 5 5 6 7 8 8 8 7 6 5 5 6 6 6 6 6 7 7 5 4 2 2 3 2 2 3
4 3 3 3 3 2 1 2 4 4 3 2 4 4 5 3 5 5 4 4 5 6 7 7 6 5 4 4 4 5 6 5 5 5 6 6 7 6 5 4 3 2 1 1
4 4 2 1 1 2 3 4 3 4 3 4 2 3 5 5 4 5 5 5 5 5 6 6 6 6 5 5 5 5 6 5 4 5 5 5 6 7 7 5 4 3 2 1
2 5 4 2 4 4 3 6 6 4 4 4 2 3 4 3 1 2 3 5 5 5 5 5 6 6 5 5 5 6 6 5 5 4 4 4 5 5 4 5 5 4 3 3
3 5 4 3 2 5 3 3 6 5 2 2 3 3 3 3 4 3 4 4 4 4 4 4 4 5 5 5 5 6 6 5 4 5 4 4 4 4 4 3 4 3 3 3
4 3 4 3 2 1 4 5 5 4 2 2 3 3 4 2 1 2 3 3 3 4 4 3 3 3 4 4 4 5 5 5 4 4 4 4 4 4 4 3 3 3 4 3
2 3 4 2 2 3 1 2 3 3 4 4 3 5 4 5 4 4 3 3 3 4 5 4 3 3 2 2 3 3 4 4 4 4 3 3 3 3 3 3 3 3 3 3
1 3 2 5 5 3 4 4 5 3 3 3 3 5 4 1 1 3 2 2 2 2 3 3 3 3 2 2 2 2 3 4 4 4 4 3 3 3 3 2 2 2 2 2
2 3 1 5 5 4 1 1 2 4 3 3 4 5 3 3 2 0 3 3 2 2 2 2 2 2 2 2 2 2 2 3 3 4 4 3 3 3 3 3 2 2 2 1
3 3 5 6 6 3 2 2 1 3 3 3 5 6 6 4 2 1 1 3 3 3 3 3 3 3 2 2 2 2 2 3 3 4 4 4 4 4 4 3 3 2 2 1
4 2 3 5 5 2 3 4 3 4 5 6 6 6 7 6 4 3 2 2 2 2 2 3 4 3 2 2 2 2 1 2 3 4 4 4 3 3 3 3 2 2 2 1
2 1 1 3 3 1 3 5 4 4 4 5 3 5 5 3 0 0 2 3 2 2 2 3 3 3 3 3 2 2 2 2 3 3 3 3 3 3 3 3 2 2 1 1
1 2 1 3 4 3 4 4 3 2 2 4 5 5 3 1 1 1 2 2 2 2 2 2 3 4 4 5 4 4 4 3 3 3 3 3 4 4 3 2 2 2 2 1
4 3 2 1 1 3 5 3 2 3 2 1 0 0 1 2 2 1 1 1 1 1 1 2 2 3 4 4 3 3 2 3 3 3 3 3 4 4 3 3 3 2 2 2
5 5 3 2 2 4 4 3 1 1 2 3 1 1 2 3 4 4 4 1 1 1 2 2 2 2 2 3 3 3 2 2 3 3 3 3 4 4 4 4 3 3 2 2
4 4 4 3 3 4 5 5 4 1 1 4 1 2 2 3 1 4 4 4 3 2 1 1 1 2 1 0 2 3 2 2 3 4 4 3 3 4 5 5 4 2 2 3
2 2 2 3 4 5 5 5 3 2 4 3 1 1 0 1 3 4 3 3 3 2 2 2 2 2 1 1 2 2 1 2 3 2 2 2 2 3 4 4 3 2 2 2
3 2 2 2 3 5 4 2 1 3 2 1 1 0 1 1 2 2 2 3 3 3 3 2 2 2 2 2 3 2 1 2 1 0 1 1 1 2 2 2 2 2 3 3
3 4 4 5 5 4 2 0 1 1 1 1 0 0 2 1 2 2 2 3 3 2 3 3 2 2 3 2 2 1 2 2 1 0 0 1 1 1 2 3 3 2 2 3
3 1 2 1 2 2 2 2 2 0 1 0 1 1 2 1 0 1 2 2 2 2 2 3 3 3 3 4 3 2 2 2 1 1 1 1 1 1 1 2 3 3 3 3
3 0 1 2 3 3 2 2 2 2 2 2 2 1 1 1 1 0 1 1 1 2 2 2 2 2 2 3 4 4 3 2 1 1 1 1 1 1 2 3 3 4 5 5
2 3 3 5 5 3 4 3 1 1 1 1 2 2 1 1 1 0 1 1 1 1 2 2 2 2 3 3 4 4 3 2 1 2 2 1 1 2 1 2 2 3 3 4
Wind_Direction
35 97 217 224 204 197 194 208 241 251 235 185 212 233 247 227 202 200 195 188 186 190 193 172 163 154 151 160 153 153 151 152 142 133 129 136 145 145 130 127 132 133 136 135
35 245 237 225 219 213 190 208 268 283 263 199 219 244 249 221 207 199 191 185 180 171 151 152 144 140 147 155 162 162 160 160 160 155 149 151 152 150 150 128 117 131 138 144
192 243 241 197 219 222 240 203 229 249 301 342 112 310 286 276 227 183 181 180 176 173 169 168 157 149 144 149 168 171 162 164 161 151 128 113 94 80 73 90 123 138 150 150
231 260 234 205 229 196 235 232 220 224 127 278 170 259 283 261 247 211 199 182 181 175 167 166 163 165 165 168 166 163 157 155 154 148 145 145 146 150 173 169 162 141 134 137
246 227 203 223 234 204 225 240 232 219 181 267 264 185 283 297 234 236 217 195 184 176 169 168 170 172 164 156 154 159 153 152 150 151 155 154 154 159 151 140 141 146 135 140
243 253 199 217 250 207 218 13 18 39 82 269 240 183 271 238 218 226 219 187 173 172 168 167 166 155 143 140 139 145 145 148 149 149 156 163 163 160 151 159 164 164 154 155
310 297 271 191 4 356 68 81 23 355 1 256 248 174 244 254 221 201 197 188 180 166 155 155 152 151 148 147 146 146 144 142 154 153 159 166 171 173 171 176 177 172 167 173
228 276 256 218 183 192 189 146 158 204 230 276 327 219 248 279 266 172 161 154 146 145 153 157 159 160 160 157 157 152 151 153 159 161 168 169 169 172 180 182 178 184 186 194
189 258 284 241 198 156 154 179 172 157 226 243 273 280 310 23 34 69 99 121 144 151 151 154 154 155 157 163 168 166 161 157 165 169 163 160 167 167 173 179 178 185 192 195
166 243 280 296 36 30 155 153 99 131 183 247 276 252 239 232 187 113 121 134 152 150 150 149 156 160 169 170 174 167 164 167 171 170 167 163 168 176 176 165 183 192 195 194
127 173 295 333 207 227 103 115 121 141 162 176 240 264 236 201 185 173 178 168 158 163 164 163 171 179 167 165 160 166 175 165 168 171 159 156 164 164 160 169 188 196 200 193
72 127 240 263 269 220 171 175 143 155 226 180 197 266 302 236 185 166 172 163 151 162 162 155 157 156 145 146 172 177 172 172 180 175 159 161 164 156 152 162 184 181 180 181
79 99 61 330 332 2 80 165 145 141 138 172 195 261 321 6 17 179 173 163 152 147 142 138 140 153 170 183 187 190 183 182 179 168 162 163 165 156 161 167 155 144 148 151
83 121 171 203 231 249 265 278 192 134 170 211 217 243 293 304 305 298 184 168 167 162 167 171 176 185 192 193 192 193 204 190 176 164 165 168 177 174 171 168 156 147 149 144
83 153 212 233 242 241 261 267 243 203 199 205 230 234 263 268 250 224 182 162 160 163 180 185 189 190 195 202 211 198 195 189 178 167 169 180 183 172 155 151 158 146 138 156
64 148 320 297 268 283 297 278 258 241 225 214 224 254 274 263 320 161 160 159 161 176 184 186 194 195 202 208 208 195 190 180 158 169 183 181 170 160 155 155 149 136 138 175
111 129 125 268 291 0 298 265 219 199 217 204 225 245 275 318 296 195 188 167 197 207 206 206 205 206 211 209 200 201 200 176 158 171 190 189 175 172 179 165 143 160 180 175
155 133 143 246 7 236 247 290 169 138 36 2 151 282 262 257 230 148 158 159 186 256 229 221 219 211 206 202 202 198 184 169 171 179 191 200 182 179 182 170 174 197 195 192
164 149 138 137 216 273 290 304 293 203 318 339 61 17 10 31 42 9 348 353 258 275 268 236 214 199 187 195 193 169 169 173 175 189 201 213 197 185 180 188 198 201 195 208
89 114 132 147 187 233 261 294 305 101 288 325 7 5 7 45 16 292 320 346 352 5 19 36 95 88 105 217 143 140 163 185 212 217 216 218 199 191 195 202 203 201 198 212
40 56 144 185 217 255 274 309 23 149 247 299 311 287 122 224 237 266 313 348 358 15 20 31 73 77 59 70 108 117 135 225 243 232 214 220 206 204 204 199 196 192 196 202
170 162 185 164 201 257 293 36 136 226 273 304 340 78 95 19 0 5 9 7 2 11 11 30 58 40 20 52 84 80 293 274 281 155 154 228 236 225 203 186 205 200 192 197
190 194 188 187 212 250 314 242 261 204 250 282 227 91 111 65 16 1 8 9 358 11 12 23 53 36 14 20 67 79 314 328 4 72 187 232 251 257 211 189 198 205 202 206
303 339 136 199 261 280 319 336 335 103 172 224 140 146 131 130 38 357 6 6 4 12 15 21 42 41 11 1 3 353 332 349 43 15 280 252 234 252 234 208 201 205 212 219
264 333 129 245 274 323 322 327 323 356 36 52 45 47 132 134 122 356 333 336 353 8 6 19 32 25 348 346 353 356 351 0 9 355 325 303 270 245 240 227 221 220 222 219
233 198 194 232 236 220 257 276 303 13 13 76 76 47 34 101 136 85 327 324 354 15 1 14 11 2 344 348 347 347 349 4 8 346 335 321 310 283 269 264 280 265 249 255
Height
1499 1505 1509 1507 1505 1506 1509 1512 1514 1509 1502 1505 1508 1508 1505 1503 1504 1504 1505 1506 1508 1509 1512 1513 1515 1516 1518 1520 1522 1523 1525 1526 1527 1528 1529 1531 1531 1532 1533 1533 1534 1534 1534 1534
1505 1507 1500 1499 1500 1503 1506 1511 1512 1507 1501 1503 1507 1507 1502 1501 1501 1501 1502 1504 1505 1507 1509 1511 1513 1515 1516 1518 1520 1522 1523 1524 1526 1527 1528 1530 1531 1532 1532 1533 1533 1534 1534 1534
1506 1502 1496 1498 1501 1504 1506 1509 1510 1509 1503 1502 1507 1511 1506 1501 1500 1501 1501 1502 1503 1505 1507 1509 1511 1513 1515 1516 1519 1520 1522 1524 1525 1526 1527 1529 1530 1531 1532 1532 1533 1533 1533 1534
1501 1497 1496 1499 1501 1502 1509 1501 1501 1504 1511 1517 1511 1526 1512 1504 1502 1501 1501 1501 1502 1503 1505 1507 1508 1511 1513 1515 1517 1519 1520 1522 1524 1525 1526 1527 1528 1528 1530 1531 1532 1532 1533 1533
1501 1496 1497 1500 1498 1497 1501 1496 1498 1501 1509 1516 1514 1522 1518 1506 1506 1502 1500 1500 1500 1501 1503 1504 1506 1508 1511 1513 1515 1517 1519 1520 1522 1523 1524 1525 1526 1527 1528 1530 1530 1531 1531 1532
1497 1494 1494 1495 1493 1493 1495 1498 1502 1508 1514 1526 1516 1522 1521 1509 1503 1499 1498 1498 1499 1500 1501 1503 1505 1507 1509 1512 1513 1515 1517 1518 1519 1521 1522 1523 1524 1525 1527 1527 1528 1529 1530 1530
1502 1496 1493 1493 1496 1495 1499 1512 1527 1529 1533 1529 1514 1517 1515 1499 1495 1495 1496 1496 1497 1498 1499 1502 1504 1506 1508 1510 1511 1513 1514 1516 1517 1519 1520 1521 1522 1524 1524 1525 1526 1527 1528 1528
1512 1510 1496 1492 1496 1500 1501 1510 1529 1537 1537 1529 1516 1518 1508 1495 1493 1493 1493 1495 1496 1497 1499 1500 1502 1504 1506 1508 1509 1511 1512 1514 1515 1517 1518 1519 1521 1522 1523 1523 1524 1525 1526 1526
1511 1509 1494 1491 1490 1494 1502 1508 1508 1522 1524 1530 1524 1513 1503 1496 1495 1494 1494 1495 1496 1497 1498 1500 1501 1503 1504 1506 1508 1509 1510 1512 1513 1514 1516 1517 1519 1520 1521 1521 1522 1523 1524 1525
1502 1507 1497 1492 1491 1492 1496 1501 1513 1521 1530 1534 1525 1518 1513 1502 1499 1497 1496 1496 1496 1497 1498 1500 1501 1502 1504 1505 1506 1507 1509 1510 1511 1513 1514 1515 1516 1518 1519 1520 1520 1521 1521 1522
1499 1507 1504 1498 1498 1500 1500 1503 1509 1518 1522 1530 1532 1522 1499 1498 1496 1496 1496 1496 1497 1497 1498 1499 1500 1502 1503 1504 1505 1506 1507 1508 1510 1511 1512 1513 1514 1515 1517 1517 1518 1518 1519 1519
1500 1508 1512 1504 1495 1493 1496 1500 1508 1520 1522 1523 1527 1520 1495 1495 1494 1495 1496 1497 1497 1498 1498 1499 1499 1501 1502 1503 1504 1504 1505 1506 1508 1509 1511 1512 1512 1513 1514 1515 1515 1516 1516 1516
1500 1509 1517 1513 1508 1499 1499 1499 1502 1509 1517 1522 1525 1518 1497 1496 1495 1496 1496 1497 1497 1498 1498 1498 1499 1500 1500 1501 1502 1503 1504 1505 1506 1507 1508 1509 1510 1511 1511 1512 1512 1513 1513 1513
1498 1508 1514 1517 1512 1504 1503 1500 1500 1507 1518 1519 1516 1510 1502 1499 1497 1496 1496 1496 1496 1497 1497 1497 1498 1499 1499 1500 1501 1501 1502 1503 1504 1505 1506 1507 1508 1508 1509 1510 1510 1510 1510 1510
1500 1508 1506 1504 1500 1499 1500 1500 1499 1503 1506 1511 1507 1505 1501 1499 1497 1495 1495 1495 1495 1495 1495 1496 1496 1496 1497 1498 1499 1500 1500 1501 1502 1503 1503 1504 1505 1506 1507 1507 1507 1507 1507 1507
1502 1506 1505 1505 1499 1499 1501 1498 1498 1498 1500 1502 1502 1502 1497 1496 1495 1494 1493 1493 1494 1494 1493 1494 1494 1495 1495 1496 1497 1498 1498 1499 1500 1500 1501 1502 1503 1503 1504 1504 1504 1504 1504 1505
1504 1507 1510 1512 1503 1501 1507 1500 1498 1498 1497 1498 1502 1500 1496 1495 1494 1493 1492 1492 1492 1492 1492 1492 1492 1493 1494 1494 1495 1496 1496 1497 1497 1497 1498 1499 1500 1500 1500 1501 1501 1501 1501 1502
1503 1507 1512 1513 1509 1514 1506 1495 1494 1496 1497 1496 1495 1495 1494 1493 1492 1493 1492 1491 1491 1491 1491 1491 1491 1491 1491 1492 1493 1494 1494 1494 1494 1495 1495 1496 1497 1497 1497 1498 1497 1497 1498 1498
1497 1504 1512 1516 1516 1511 1502 1496 1495 1496 1499 1495 1495 1494 1493 1491 1491 1493 1492 1491 1490 1489 1489 1489 1489 1489 1489 1489 1490 1491 1491 1491 1491 1492 1492 1493 1493 1494 1494 1494 1494 1495 1495 1495
1497 1500 1509 1514 1515 1514 1504 1495 1492 1495 1501 1496 1494 1493 1493 1492 1496 1494 1491 1490 1489 1488 1487 1487 1487 1487 1487 1487 1487 1487 1487 1488 1488 1488 1489 1489 1490 1490 1491 1491 1491 1491 1491 1491
1504 1506 1511 1513 1514 1508 1499 1494 1493 1503 1502 1496 1494 1493 1492 1492 1493 1492 1490 1488 1487 1486 1486 1485 1485 1484 1484 1484 1484 1484 1485 1485 1485 1485 1486 1486 1486 1486 1487 1487 1488 1488 1488 1488
1507 1510 1512 1513 1514 1510 1496 1494 1498 1499 1495 1494 1493 1492 1491 1491 1490 1489 1488 1487 1486 1484 1484 1483 1482 1482 1482 1482 1482 1482 1482 1482 1483 1483 1482 1482 1482 1483 1483 1484 1484 1484 1484 1484
1503 1503 1504 1506 1506 1498 1495 1495 1495 1494 1493 1492 1491 1491 1490 1489 1488 1488 1486 1485 1485 1483 1482 1481 1481 1480 1480 1481 1480 1480 1480 1480 1480 1480 1479 1479 1479 1479 1479 1479 1480 1480 1480 1480
1501 1498 1500 1501 1499 1496 1495 1494 1493 1492 1491 1490 1490 1489 1488 1487 1487 1486 1485 1484 1483 1482 1480 1479 1479 1478 1478 1479 1478 1478 1477 1477 1477 1476 1476 1476 1475 1475 1475 1475 1476 1476 1476 1476
1500 1499 1500 1500 1498 1495 1494 1493 1492 1491 1490 1489 1488 1488 1487 1485 1484 1483 1482 1481 1481 1480 1479 1478 1477 1477 1476 1476 1476 1475 1474 1474 1473 1473 1472 1472 1472 1472 1472 1472 1472 1472 1472 1473
1498 1498 1499 1498 1495 1494 1493 1492 1491 1489 1488 1487 1486 1486 1485 1484 1482 1481 1480 1479 1479 1478 1477 1476 1476 1475 1474 1474 1473 1472 1471 1471 1470 1470 1469 1469 1469 1469 1469 1469 1469 1469 1469 1469